Weather History for KFDY - November, 2013

Change the Weather History Date:

Sunday, November 10, 2013

  Actual Average Record
Temperature  
Mean Temperature 39 °F -  
Max Temperature 48 °F 50 °F 70 °F (1949)
Min Temperature 30 °F 35 °F 20 °F (1991)
Degree Days  
Heating Degree Days 26    
Moisture  
Dew Point 31 °F    
Average Humidity 69    
Maximum Humidity 85    
Minimum Humidity 50    
Precipitation  
Precipitation 0.00 in - - ()
Sea Level Pressure  
Sea Level Pressure 30.18 in    
Wind  
Wind Speed 14 mph (West)    
Max Wind Speed 20 mph    
Max Gust Speed 24 mph    
Visibility 10 miles    
Events      
Averages and records for this station are not official NWS values.
T = Trace of Precipitation, MM = Missing Value Source: NWS Daily Summary

Daily Weather History Graph

Daily Weather History Graph

Search for Another Location

Airport or City:

Trip Planner

Search our weather history database for the weather conditions in past years. The results will help you decide how hot, cold, wet, or windy it might be!

Date:

Astronomy

Nov. 10, 2013 Rise Set
Actual Time 7:16 AM EST 5:20 PM EST
Civil Twilight 6:47 AM EST 5:49 PM EST
Nautical Twilight 6:14 AM EST 6:22 PM EST
Astronomical Twilight 5:42 AM EST 6:54 PM EST
Moon 1:28 PM EST (11/10) No Moon Set
Length of Visible Light 11h 02m
Length of Day
10h 03m
First Quarter, 55% of the Moon is Illuminated
Nov 10
First Quarter
Nov 17
Full
Nov 25
Last Quarter
Dec 2
New
Dec 9
First Quarter

Hourly Weather History & Observations

Time (EST) Temp. Windchill Dew Point Humidity Pressure Visibility Wind Dir Wind Speed Gust Speed Precip Events Conditions
12:53 AM 45.0 °F 38.2 °F 37.0 °F 74% 29.98 in 10.0 mi WSW 15.0 mph - N/A   Clear
1:53 AM 43.0 °F 37.2 °F 37.0 °F 80% 29.99 in 10.0 mi WSW 10.4 mph - N/A   Clear
2:53 AM 43.0 °F 36.8 °F 36.0 °F 76% 29.99 in 10.0 mi WSW 11.5 mph - N/A   Partly Cloudy
3:53 AM 44.1 °F 36.5 °F 36.0 °F 73% 29.99 in 10.0 mi West 17.3 mph 24.2 mph N/A   Mostly Cloudy
4:53 AM 42.1 °F 33.3 °F 30.9 °F 65% 30.02 in 10.0 mi West 19.6 mph 24.2 mph N/A   Mostly Cloudy
5:53 AM 39.9 °F 31.1 °F 28.9 °F 65% 30.06 in 10.0 mi West 17.3 mph - N/A   Mostly Cloudy
6:53 AM 41.0 °F 33.1 °F 28.0 °F 60% 30.09 in 10.0 mi West 15.0 mph 23.0 mph N/A   Overcast
7:53 AM 39.9 °F 32.9 °F 30.0 °F 68% 30.12 in 10.0 mi West 11.5 mph - N/A   Overcast
8:53 AM 39.0 °F 30.6 °F 28.9 °F 67% 30.15 in 10.0 mi WSW 15.0 mph 23.0 mph N/A   Overcast
9:53 AM 39.9 °F 30.5 °F 30.0 °F 68% 30.18 in 10.0 mi West 19.6 mph - N/A   Overcast
10:53 AM 41.0 °F 32.2 °F 30.9 °F 67% 30.22 in 10.0 mi West 18.4 mph - N/A   Overcast
11:53 AM 43.0 °F 34.5 °F 30.9 °F 62% 30.23 in 10.0 mi West 19.6 mph - N/A   Overcast
12:53 PM 44.1 °F 36.2 °F 30.9 °F 60% 30.23 in 10.0 mi West 18.4 mph 24.2 mph N/A   Overcast
1:53 PM 45.0 °F 37.6 °F 30.9 °F 58% 30.24 in 10.0 mi WNW 17.3 mph 23.0 mph N/A   Overcast
2:53 PM 46.0 °F 39.9 °F 30.0 °F 54% 30.25 in 10.0 mi WNW 13.8 mph - N/A   Scattered Clouds
3:53 PM 48.0 °F - 30.0 °F 50% 30.26 in 10.0 mi NW 12.7 mph - N/A   Clear
4:53 PM 46.0 °F 41.4 °F 30.0 °F 54% 30.27 in 10.0 mi West 9.2 mph - N/A   Partly Cloudy
5:53 PM 39.0 °F 34.0 °F 30.0 °F 70% 30.28 in 10.0 mi West 6.9 mph - N/A   Clear
6:53 PM 36.0 °F 30.3 °F 28.9 °F 76% 30.30 in 10.0 mi West 6.9 mph - N/A   Clear
7:53 PM 35.1 °F 29.3 °F 30.0 °F 82% 30.30 in 10.0 mi WSW 6.9 mph - N/A   Clear
8:53 PM 35.1 °F 29.3 °F 30.0 °F 82% 30.30 in 10.0 mi WSW 6.9 mph - N/A   Clear
9:53 PM 34.0 °F 29.8 °F 28.0 °F 79% 30.31 in 10.0 mi West 4.6 mph - N/A   Clear
10:53 PM 30.9 °F 27.5 °F 27.0 °F 85% 30.29 in 10.0 mi SSW 3.5 mph - N/A   Clear
11:53 PM 30.9 °F 27.5 °F 27.0 °F 85% 30.29 in 10.0 mi SSW 3.5 mph - N/A   Clear